FLOCK 3P-12 (41972 NORAD) Tracking and Keplerian Element Data

This shows tracking and keplerian element data for the satellite.

Feedback or suggestion? Click here.




ElementValue
Catalog41972
NameFLOCK 3P-12
Epoch Orbit32646
Epoch Day359.13958753
Epoch Year2022
RAAN65.8966
Inclination97.2434
Eccentricity0.000548
Argument of Perigee279.0829
Mean Anonmoly80.9816
Mean Motion15.75890828
Decay Rate0.00458569
L11 41972U 17008AA 22359.13958753 .00458569 00000+0 28256-2 0 9992
L22 41972 97.2434 65.8966 0005480 279.0829 80.9816 15.75890828326464



Live tracking and technical data element details for FLOCK 3P-12 (NORAD 41972). FLOCK 3P-12 can be tracked NOW for your location showing map with azimuth and elevation plus other details from your city location.







IsCatalogInMostPopularTable: catalog: 41972, numindb: 391
Update: records affected: 1



GetName: 41972 FLOCK 3P-12

Hit Count: updated at: Sat, 24 May 2025 15:46:47 GMT